GW2108 Weather Reports


time (UTC)temp
F
wind
direction
speed
knots
gust
knots
rain 1hr
in
rain 24hr
in
rain mn
in
humidity
%
barometer
mb
20260504001602 82 9 0.0 0.0 0.00 0.00 0.00 30 1009.7
20260504000028 83 9 0.0 0.0 0.00 0.00 0.00 33 1009.8
20260503234543 83 9 0.0 0.0 0.00 0.00 0.00 33 1010.0
20260503233008 83 9 0.0 0.0 0.00 0.00 0.00 33 1010.1
20260503231551 83 9 0.0 0.0 0.00 0.00 0.00 32 1010.2
20260503230056 84 9 0.0 0.0 0.00 0.00 0.00 30 1010.6
20260503224614 86 9 0.0 0.0 0.00 0.00 0.00 30 1010.7
20260503223013 86 9 0.0 0.0 0.00 0.00 0.00 32 1010.9
20260503221554 85 9 0.0 0.0 0.00 0.00 0.00 31 1011.1
20260503220034 84 9 0.0 0.0 0.00 0.00 0.00 33 1011.3
20260503214553 84 9 0.0 0.0 0.00 0.00 0.00 32 1011.4
20260503213013 84 9 0.0 0.0 0.00 0.00 0.00 33 1011.5
20260503211549 83 9 0.0 0.0 0.00 0.00 0.00 37 1011.5
20260503210003 82 9 0.0 0.0 0.00 0.00 0.00 36 1011.7
20260503204545 82 9 0.0 0.0 0.00 0.00 0.00 34 1011.9
20260503203036 82 9 0.0 0.0 0.00 0.00 0.00 41 1012.1
20260503201502 82 9 0.0 0.0 0.00 0.00 0.00 38 1012.2
20260503200044 82 9 0.0 0.0 0.00 0.00 0.00 37 1012.4
20260503194537 81 9 0.0 0.0 0.00 0.00 0.00 42 1012.6
20260503193110 80 9 0.0 0.0 0.00 0.00 0.00 45 1012.8
20260503191557 78 9 0.0 0.0 0.00 0.00 0.00 43 1012.9
20260503190042 77 9 0.0 0.0 0.00 0.00 0.00 46 1013.2
20260503184559 76 9 0.0 0.0 0.00 0.00 0.00 47 1013.4
20260503183056 75 9 0.0 0.0 0.00 0.00 0.00 49 1013.6
20260503181555 74 9 0.0 0.0 0.00 0.00 0.00 51 1013.7
20260503180040 73 9 0.0 0.0 0.00 0.00 0.00 51 1014.0
20260503174518 71 9 0.0 0.0 0.00 0.00 0.00 56 1014.0
20260503173109 70 9 0.0 0.0 0.00 0.00 0.00 57 1014.1
20260503171534 68 9 0.0 0.0 0.00 0.00 0.00 61 1014.2
20260503081504 51 9 0.0 0.0 0.00 0.00 0.00 82 1015.1
20260503071505 53 9 0.0 0.0 0.00 0.00 0.00 79 1014.8
20260503054512 57 9 0.0 0.0 0.00 0.00 0.00 73 1014.3
20260503053035 58 9 0.0 0.0 0.00 0.00 0.00 70 1014.5
20260503051550 59 9 0.0 0.0 0.00 0.00 0.00 71 1014.3
20260503050003 60 9 0.0 0.0 0.00 0.00 0.00 69 1014.2
20260503044530 61 9 0.0 0.0 0.00 0.00 0.00 68 1014.1
20260503043013 62 9 0.0 0.0 0.00 0.00 0.00 66 1014.0
20260503041607 63 9 0.0 0.0 0.00 0.00 0.00 65 1013.8
20260503040032 64 9 0.0 0.0 0.00 0.00 0.00 62 1013.6
20260503034545 65 9 0.0 0.0 0.00 0.00 0.00 60 1013.4
20260503033117 66 9 0.0 0.0 0.00 0.00 0.00 59 1013.2
20260503031515 67 9 0.0 0.0 0.00 0.00 0.00 53 1013.1
20260503030035 68 9 0.0 0.0 0.00 0.00 0.00 53 1012.9
20260503024604 70 9 0.0 0.0 0.00 0.00 0.00 51 1012.9
20260503023029 71 9 0.0 0.0 0.00 0.00 0.00 50 1012.6
20260503021551 71 9 0.0 0.0 0.00 0.00 0.00 48 1012.7
20260503020025 72 9 0.0 0.0 0.00 0.00 0.00 49 1012.7
20260503014547 73 9 0.0 0.0 0.00 0.00 0.00 49 1012.6
20260503013058 74 9 0.0 0.0 0.00 0.00 0.00 45 1012.7
20260503011530 74 9 0.0 0.0 0.00 0.00 0.00 44 1012.8
20260503010050 75 9 0.0 0.0 0.00 0.00 0.00 45 1012.7
20260503004528 76 9 0.0 0.0 0.00 0.00 0.00 45 1012.9
20260503003044 76 9 0.0 0.0 0.00 0.00 0.00 41 1012.8